Regional Weather Roundup
Issued by NWS

Home | Current Version | Previous Version | Text Only | Print | Product List | Glossary On
Versions: 1 2 3 4 5 6 7 8 9 10 11 12 13 14 15 16 17 18 19 20 21 22 23 24 25 26 27 28 29 30 31 32 33 34 35 36 37 38 39 40 41 42 43 44 45 46 47 48 49 50
000
ASUS43 KTOP 110208
RWRKS

WEATHER ROUNDUP FOR KANSAS
NATIONAL WEATHER SERVICE GOODLAND KS
800 PM CST WED FEB 10 2016

NOTE:  "FAIR" INDICATES FEW OR NO CLOUDS BELOW 12,000 FEET WITH NO
SIGNIFICANT WEATHER AND/OR OBSTRUCTIONS TO VISIBILITY.

KSZ001>006-013>018-027>032-041>047-110300-
NORTHWEST KANSAS

CITY           SKY/WX    TMP DP  RH WIND       PRES   REMARKS
GOODLAND       CLOUDY    44  28  53 NW9       30.08R
HAYS           CLEAR     43  27  52 NW12      30.00R
HILL CITY      CLOUDY    45  31  58 NW12G21   30.01R
RUSSELL        CLEAR     39  30  70 W9        29.97R
$$

KSZ061>065-074>080-084>089-110300-
SOUTHWEST KANSAS

CITY           SKY/WX    TMP DP  RH WIND       PRES   REMARKS
DODGE CITY     CLEAR     45  22  40 N5        30.02R
ELKHART          N/A     58   8  13 W3          N/A
GARDEN CITY    CLEAR     47  25  42 N15       30.02R
GREAT BEND     CLEAR     43  27  52 W7        29.99R
LIBERAL        CLEAR     59  16  18 NE5       30.03S
PRATT          CLEAR     45  25  44 NW10      29.98R
$$

KSZ066>073-081>083-090>101-110300-
SOUTHEAST KANSAS

CITY           SKY/WX    TMP DP  RH WIND       PRES   REMARKS
CHANUTE        CLEAR     45  29  53 SE7       29.93R
COFFEYVILLE    CLEAR     46  28  49 S3        29.92S
HUTCHINSON     CLEAR     51  29  42 NW12      29.95S
MEDICINE LODGE   N/A     53  25  33 N8        29.95S
NEWTON         CLEAR     52  28  40 NW10      29.96S
PARSONS        CLEAR     44  27  51 NE3       29.93R
WICHITA INTL   PTCLDY    52  30  43 NW8       29.95R
WICHITA JABRA  CLEAR     54  30  40 NW8       29.94R
WICHITA MCCONL CLEAR     57  31  37 NW6       29.95R
WINFIELD       CLEAR     46  29  51 NW9       29.94R
$$

KSZ007>012-019>026-033>040-048>060-102>105-110300-
NORTHEAST KANSAS

CITY           SKY/WX    TMP DP  RH WIND       PRES   REMARKS
CONCORDIA      CLOUDY    41  30  65 CALM      29.97R
EMPORIA        CLEAR     48  30  49 N6        29.94R
LAWRENCE       CLEAR     41  23  48 E8        29.97R
MANHATTAN      CLEAR     47  31  53 N3        29.97R
MARYSVILLE     CLEAR     34  30  86 N6        29.99R
OLATHE IND     CLEAR     40  22  48 E7        29.97R
OLATHE EXE     CLEAR     39  20  46 E7        29.97R
SALINA         CLEAR     43  29  57 NW6       29.97R
TOPEKA BILLARD CLEAR     42  24  49 E7        29.96R
TOPEKA FORBES  CLEAR     43  26  51 E7        29.95R
$$



USA.gov is the U.S. government's official web portal to all federal, state and local government web resources and services.